DLH893 EVRA-EDDH

Flight info

Callsign DLH893
Flight time 1h 25m
Altitude 38000
Route VALED DCT ADAXA DCT NINTA DCT BAGOS N850 BOGMU BOGMU3P
Aircraft A319/M-SDE3FGHIRWY/LB1

Departure

Time 2026-04-24 20:00
Airport Riga International Airport (EVRA)

Arrival

Time 2026-04-24 21:25
Airport Hamburg Helmut Schmidt Airport (EDDH)
Time Latitude Longitude Altitude Speed Heading
2026-04-24 19:25 56.92194 23.97743 43 ft 0 kts
2026-04-24 19:46 56.92183 23.97741 41 ft 4 kts
2026-04-24 19:47 56.92156 23.97738 43 ft 4 kts
2026-04-24 19:47 56.92129 23.97737 42 ft 4 kts
2026-04-24 19:47 56.92103 23.97735 44 ft 2 kts
2026-04-24 19:47 56.92102 23.97735 44 ft 0 kts
2026-04-24 19:50 56.92105 23.97736 44 ft 0 kts
2026-04-24 19:51 56.92135 23.97675 44 ft 7 kts 277°
2026-04-24 19:51 56.92139 23.97571 41 ft 9 kts 275°
2026-04-24 19:52 56.92048 23.97447 44 ft 12 kts 185°
2026-04-24 19:52 56.91962 23.97436 44 ft 13 kts 183°
2026-04-24 19:52 56.91873 23.97428 44 ft 13 kts 183°
2026-04-24 19:52 56.91774 23.97414 44 ft 15 kts 185°
2026-04-24 19:53 56.91661 23.97395 44 ft 17 kts 185°
2026-04-24 19:53 56.91542 23.97376 44 ft 18 kts 185°
2026-04-24 19:53 56.91314 23.97247 44 ft 15 kts 231°
2026-04-24 19:54 56.91271 23.97142 44 ft 5 kts 245°
2026-04-24 19:54 56.91270 23.97137 44 ft 0 kts 247°
2026-04-24 19:58 56.91264 23.97110 43 ft 4 kts 248°
2026-04-24 19:58 56.91257 23.97022 45 ft 10 kts 272°
2026-04-24 19:58 56.91289 23.96936 46 ft 8 kts 352°
2026-04-24 19:58 56.91299 23.96938 46 ft 0 kts
2026-04-24 19:59 56.91312 23.96941 45 ft 12 kts
2026-04-24 19:59 56.91688 23.97002 43 ft 93 kts
2026-04-24 19:59 56.92556 23.97137 75 ft 151 kts
2026-04-24 20:00 56.93591 23.97290 702 ft 148 kts
2026-04-24 20:00 56.94615 23.97446 1337 ft 150 kts
2026-04-24 20:00 56.95728 23.97620 1766 ft 172 kts
2026-04-24 20:00 56.96999 23.97824 2144 ft 195 kts
2026-04-24 20:01 56.98421 23.98054 2559 ft 220 kts
2026-04-24 20:01 57.00046 23.98323 3164 ft 241 kts
2026-04-24 20:01 57.01725 23.98608 3562 ft 247 kts
2026-04-24 20:01 57.03440 23.98866 3953 ft 248 kts 359°
2026-04-24 20:02 57.04587 23.98578 4217 ft 247 kts 342°
2026-04-24 20:02 57.06455 23.96257 4743 ft 252 kts 309°
2026-04-24 20:02 57.07165 23.93274 5641 ft 261 kts 283°
2026-04-24 20:02 57.07065 23.89910 6636 ft 272 kts 258°
2026-04-24 20:03 57.06476 23.86581 7582 ft 274 kts 259°
2026-04-24 20:03 57.06023 23.83171 8529 ft 275 kts 263°
2026-04-24 20:03 57.05637 23.79713 9478 ft 278 kts 264°
2026-04-24 20:03 57.05258 23.76192 10207 ft 288 kts 264°
2026-04-24 20:04 57.04847 23.72442 10529 ft 310 kts 263°
2026-04-24 20:04 57.04391 23.68505 11212 ft 318 kts 262°
2026-04-24 20:04 57.03902 23.64505 12029 ft 322 kts 261°
2026-04-24 20:04 57.03392 23.60482 12864 ft 325 kts 261°
2026-04-24 20:05 57.02871 23.56427 13677 ft 328 kts 261°
2026-04-24 20:05 57.02346 23.52343 14393 ft 330 kts 261°
2026-04-24 20:05 57.01815 23.48221 15112 ft 333 kts 260°
2026-04-24 20:05 57.01277 23.44062 15807 ft 336 kts 260°
2026-04-24 20:06 57.00737 23.39872 16515 ft 339 kts 260°
2026-04-24 20:06 57.00200 23.35696 17215 ft 342 kts 260°
2026-04-24 20:06 56.99652 23.31439 17900 ft 345 kts 260°
2026-04-24 20:06 56.99096 23.27140 18524 ft 347 kts 259°
2026-04-24 20:07 56.98715 23.24212 18931 ft 349 kts 259°
2026-04-24 20:07 56.97960 23.18451 19740 ft 353 kts 259°
2026-04-24 20:07 56.97382 23.14054 20348 ft 355 kts 259°
2026-04-24 20:07 56.96800 23.09626 20948 ft 358 kts 259°
2026-04-24 20:08 56.96212 23.05170 21547 ft 361 kts 259°
2026-04-24 20:08 56.95620 23.00686 22137 ft 364 kts 259°
2026-04-24 20:08 56.95022 22.96165 22728 ft 366 kts 259°
2026-04-24 20:08 56.94423 22.91667 23302 ft 369 kts 259°
2026-04-24 20:09 56.93811 22.87088 23803 ft 372 kts 258°
2026-04-24 20:09 56.93191 22.82469 24263 ft 375 kts 258°
2026-04-24 20:09 56.92568 22.77830 24721 ft 376 kts 258°
2026-04-24 20:09 56.91931 22.73097 25190 ft 379 kts 258°
2026-04-24 20:10 56.91303 22.68451 25627 ft 381 kts 258°
2026-04-24 20:10 56.90661 22.63733 26012 ft 383 kts 257°
2026-04-24 20:10 56.90015 22.58987 26387 ft 385 kts 257°
2026-04-24 20:10 56.89366 22.54221 26643 ft 386 kts 257°
2026-04-24 20:11 56.88714 22.49444 26906 ft 388 kts 257°
2026-04-24 20:11 56.88058 22.44643 27178 ft 390 kts 257°
2026-04-24 20:11 56.87396 22.39811 27574 ft 393 kts 257°
2026-04-24 20:11 56.86726 22.34942 27990 ft 396 kts 257°
2026-04-24 20:12 56.86048 22.30051 28412 ft 399 kts 257°
2026-04-24 20:12 56.85359 22.25109 28821 ft 401 kts 257°
2026-04-24 20:12 56.84676 22.20223 29213 ft 404 kts 257°
2026-04-24 20:12 56.83977 22.15241 29614 ft 406 kts 256°
2026-04-24 20:13 56.83270 22.10223 29995 ft 409 kts 256°
2026-04-24 20:13 56.82561 22.05182 30306 ft 411 kts 257°
2026-04-24 20:13 56.81847 22.00111 30617 ft 413 kts 257°
2026-04-24 20:13 56.81126 21.95026 30922 ft 415 kts 257°
2026-04-24 20:14 56.80397 21.89907 31227 ft 417 kts 257°
2026-04-24 20:14 56.79663 21.84760 31467 ft 421 kts 257°
2026-04-24 20:14 56.78921 21.79570 31660 ft 425 kts 257°
2026-04-24 20:14 56.78171 21.74347 31991 ft 426 kts 257°
2026-04-24 20:15 56.77421 21.69131 32358 ft 425 kts 257°
2026-04-24 20:15 56.76667 21.63909 32741 ft 425 kts 257°
2026-04-24 20:15 56.75910 21.58706 33137 ft 424 kts 257°
2026-04-24 20:15 56.75153 21.53522 33511 ft 423 kts 257°
2026-04-24 20:16 56.74394 21.48330 33899 ft 422 kts 257°
2026-04-24 20:16 56.73639 21.43160 34197 ft 423 kts 257°
2026-04-24 20:16 56.72879 21.37974 34451 ft 424 kts 257°
2026-04-24 20:16 56.72113 21.32778 34719 ft 425 kts 257°
2026-04-24 20:17 56.71343 21.27592 34988 ft 425 kts 257°
2026-04-24 20:17 56.69794 21.17180 35498 ft 426 kts 257°
2026-04-24 20:17 56.69017 21.11978 35749 ft 426 kts 257°
2026-04-24 20:18 56.68502 21.08534 35911 ft 427 kts 257°
2026-04-24 20:18 56.67458 21.01576 36233 ft 427 kts 257°
2026-04-24 20:18 56.66674 20.96371 36455 ft 427 kts 257°
2026-04-24 20:18 56.65888 20.91162 36685 ft 427 kts 257°
2026-04-24 20:19 56.65114 20.86038 36896 ft 427 kts 257°
2026-04-24 20:19 56.64324 20.80831 37109 ft 428 kts 257°
2026-04-24 20:19 56.63521 20.75555 37328 ft 428 kts 257°
2026-04-24 20:19 56.62734 20.70403 37517 ft 429 kts 257°
2026-04-24 20:20 56.61921 20.65110 37720 ft 429 kts 257°
2026-04-24 20:20 56.61130 20.59974 37885 ft 430 kts 257°
2026-04-24 20:20 56.59508 20.49511 37921 ft 430 kts 257°
2026-04-24 20:21 56.57883 20.39085 37919 ft 430 kts 257°
2026-04-24 20:21 56.56244 20.28657 37924 ft 430 kts 257°
2026-04-24 20:22 56.54596 20.18237 37903 ft 429 kts 257°
2026-04-24 20:22 56.52958 20.07890 37926 ft 429 kts 257°
2026-04-24 20:23 56.51298 19.97497 37929 ft 429 kts 257°
2026-04-24 20:23 56.49623 19.87116 37934 ft 429 kts 257°
2026-04-24 20:24 56.47952 19.76746 37940 ft 429 kts 257°
2026-04-24 20:24 56.46553 19.68108 37939 ft 429 kts 257°
2026-04-24 20:25 56.44870 19.57745 37928 ft 429 kts 257°
2026-04-24 20:25 56.43171 19.47407 37941 ft 429 kts 257°
2026-04-24 20:26 56.41455 19.37057 37932 ft 429 kts 257°
2026-04-24 20:26 56.39734 19.26722 37925 ft 429 kts 257°
2026-04-24 20:27 56.38012 19.16468 37930 ft 429 kts 257°
2026-04-24 20:27 56.36279 19.06170 37934 ft 429 kts 257°
2026-04-24 20:28 56.34538 18.95883 37937 ft 429 kts 257°
2026-04-24 20:28 56.32786 18.85612 37938 ft 429 kts 257°
2026-04-24 20:29 56.31040 18.75419 37944 ft 429 kts 257°
2026-04-24 20:29 56.29279 18.65168 37946 ft 429 kts 256°
2026-04-24 20:30 56.27503 18.54911 37926 ft 429 kts 257°
2026-04-24 20:30 56.25718 18.44665 37909 ft 429 kts 257°
2026-04-24 20:31 56.23918 18.34438 37923 ft 429 kts 256°
2026-04-24 20:31 56.22071 18.24234 37930 ft 429 kts 255°
2026-04-24 20:32 56.20066 18.14119 37937 ft 430 kts 254°
2026-04-24 20:32 56.18002 18.04049 37939 ft 430 kts 254°
2026-04-24 20:33 56.15950 17.93972 37918 ft 430 kts 254°
2026-04-24 20:33 56.13913 17.83897 37925 ft 430 kts 255°
2026-04-24 20:34 56.11872 17.73829 37930 ft 430 kts 254°
2026-04-24 20:34 56.09820 17.63792 37920 ft 429 kts 254°
2026-04-24 20:35 56.07775 17.53834 37942 ft 428 kts 254°
2026-04-24 20:35 56.05705 17.43847 37946 ft 427 kts 254°
2026-04-24 20:36 56.03631 17.33891 37945 ft 427 kts 254°
2026-04-24 20:36 56.01561 17.23947 37938 ft 426 kts 254°
2026-04-24 20:37 55.99483 17.14022 37939 ft 426 kts 254°
2026-04-24 20:37 55.97389 17.04127 37941 ft 425 kts 254°
2026-04-24 20:38 55.95291 16.94250 37938 ft 425 kts 254°
2026-04-24 20:38 55.93210 16.84472 37910 ft 424 kts 254°
2026-04-24 20:39 55.91109 16.74641 37938 ft 424 kts 254°
2026-04-24 20:39 55.89001 16.64825 37929 ft 424 kts 254°
2026-04-24 20:40 55.86887 16.55014 37941 ft 424 kts 254°
2026-04-24 20:40 55.84766 16.45232 37936 ft 423 kts 254°
2026-04-24 20:41 55.82632 16.35464 37922 ft 423 kts 254°
2026-04-24 20:41 55.80492 16.25710 37931 ft 423 kts 254°
2026-04-24 20:42 55.78345 16.15947 37930 ft 424 kts 253°
2026-04-24 20:42 55.76207 16.06269 37914 ft 422 kts 254°
2026-04-24 20:43 55.74051 15.96585 37932 ft 421 kts 253°
2026-04-24 20:43 55.71890 15.86941 37940 ft 420 kts 253°
2026-04-24 20:44 55.69738 15.77328 37945 ft 418 kts 253°
2026-04-24 20:44 55.67590 15.67760 37945 ft 417 kts 253°
2026-04-24 20:45 55.65428 15.58226 37943 ft 417 kts 253°
2026-04-24 20:45 55.63272 15.48720 37941 ft 416 kts 253°
2026-04-24 20:46 55.61108 15.39227 37935 ft 416 kts 253°
2026-04-24 20:46 55.58931 15.29768 37926 ft 415 kts 253°
2026-04-24 20:47 55.56752 15.20325 37927 ft 414 kts 253°
2026-04-24 20:47 55.54566 15.10914 37931 ft 414 kts 252°
2026-04-24 20:48 55.52148 15.01729 37940 ft 416 kts 249°
2026-04-24 20:48 55.49536 14.92627 37951 ft 416 kts 249°
2026-04-24 20:49 55.46935 14.83530 37944 ft 415 kts 249°
2026-04-24 20:49 55.44374 14.74411 37947 ft 415 kts 249°
2026-04-24 20:50 55.41819 14.65298 37913 ft 415 kts 249°
2026-04-24 20:50 55.39251 14.56209 37939 ft 415 kts 249°
2026-04-24 20:51 55.36677 14.47121 37931 ft 415 kts 248°
2026-04-24 20:51 55.34097 14.38050 37937 ft 415 kts 248°
2026-04-24 20:52 55.31519 14.29036 37943 ft 415 kts 248°
2026-04-24 20:52 55.28919 14.19974 37953 ft 415 kts 248°
2026-04-24 20:53 55.26307 14.10926 37959 ft 416 kts 248°
2026-04-24 20:53 55.23691 14.01899 37959 ft 416 kts 248°
2026-04-24 20:54 55.21065 13.92861 37970 ft 416 kts 248°
2026-04-24 20:54 55.18441 13.83850 37944 ft 416 kts 247°
2026-04-24 20:55 55.15800 13.74828 37949 ft 416 kts 247°
2026-04-24 20:55 55.13152 13.65826 37961 ft 417 kts 247°
2026-04-24 20:56 55.10520 13.56870 37973 ft 417 kts 247°
2026-04-24 20:56 55.07858 13.47865 37975 ft 417 kts 247°
2026-04-24 20:57 55.05181 13.38863 37979 ft 418 kts 247°
2026-04-24 20:57 55.02497 13.29885 37955 ft 418 kts 246°
2026-04-24 20:58 54.99805 13.20900 37969 ft 418 kts 246°
2026-04-24 20:58 54.97101 13.11904 37959 ft 419 kts 246°
2026-04-24 20:59 54.94390 13.02923 37970 ft 420 kts 246°
2026-04-24 20:59 54.91666 12.93935 37977 ft 420 kts 246°
2026-04-24 21:00 54.88952 12.85014 37982 ft 420 kts 246°
2026-04-24 21:00 54.86220 12.76044 37986 ft 420 kts 246°
2026-04-24 21:01 54.83476 12.67069 37974 ft 420 kts 246°
2026-04-24 21:01 54.82098 12.62575 37587 ft 424 kts 246°
2026-04-24 21:01 54.80712 12.58071 37044 ft 422 kts 246°
2026-04-24 21:02 54.79327 12.53582 36494 ft 422 kts 245°
2026-04-24 21:02 54.77938 12.49097 35850 ft 422 kts 245°
2026-04-24 21:02 54.76550 12.44626 35224 ft 421 kts 245°
2026-04-24 21:02 54.75165 12.40164 34616 ft 420 kts 245°
2026-04-24 21:03 54.73786 12.35715 34021 ft 419 kts 245°
2026-04-24 21:03 54.72408 12.31275 33336 ft 419 kts 245°
2026-04-24 21:03 54.71024 12.26823 32657 ft 420 kts 245°
2026-04-24 21:03 54.69633 12.22366 32001 ft 422 kts 245°
2026-04-24 21:04 54.68257 12.17969 31366 ft 423 kts 245°
2026-04-24 21:04 54.66848 12.13490 30752 ft 423 kts 245°
2026-04-24 21:04 54.65445 12.09039 30122 ft 420 kts 245°
2026-04-24 21:04 54.64052 12.04616 29416 ft 417 kts 245°
2026-04-24 21:05 54.62675 12.00240 28719 ft 414 kts 245°
2026-04-24 21:05 54.61302 11.95886 28035 ft 411 kts 245°
2026-04-24 21:05 54.59941 11.91575 27371 ft 408 kts 245°
2026-04-24 21:05 54.58581 11.87283 26714 ft 405 kts 245°
2026-04-24 21:06 54.57200 11.83068 26091 ft 405 kts 240°
2026-04-24 21:06 54.55454 11.79317 25475 ft 405 kts 233°
2026-04-24 21:06 54.53617 11.75645 24869 ft 403 kts 233°
2026-04-24 21:06 54.51776 11.71987 24272 ft 401 kts 233°
2026-04-24 21:07 54.49946 11.68366 23690 ft 400 kts 233°
2026-04-24 21:07 54.48124 11.64765 23025 ft 398 kts 233°
2026-04-24 21:07 54.46308 11.61179 22355 ft 397 kts 233°
2026-04-24 21:07 54.44492 11.57594 21703 ft 396 kts 233°
2026-04-24 21:08 54.42696 11.54056 21138 ft 389 kts 233°
2026-04-24 21:08 54.40931 11.50588 20630 ft 381 kts 233°
2026-04-24 21:08 54.39204 11.47199 20140 ft 373 kts 233°
2026-04-24 21:08 54.37532 11.43918 19672 ft 368 kts 233°
2026-04-24 21:09 54.35858 11.40631 19213 ft 361 kts 234°
2026-04-24 21:09 54.34223 11.37429 18790 ft 353 kts 234°
2026-04-24 21:09 54.32623 11.34304 18370 ft 345 kts 234°
2026-04-24 21:09 54.31055 11.31246 17902 ft 338 kts 234°
2026-04-24 21:10 54.29516 11.28246 17412 ft 335 kts 234°
2026-04-24 21:10 54.27977 11.25244 16888 ft 335 kts 234°
2026-04-24 21:10 54.26440 11.22245 16366 ft 336 kts 234°
2026-04-24 21:10 54.24898 11.19239 15901 ft 335 kts 234°
2026-04-24 21:11 54.23365 11.16255 15440 ft 334 kts 234°
2026-04-24 21:11 54.21831 11.13277 14988 ft 333 kts 234°
2026-04-24 21:11 54.20320 11.10351 14560 ft 332 kts 234°
2026-04-24 21:11 54.18792 11.07398 14142 ft 331 kts 234°
2026-04-24 21:12 54.17275 11.04472 13742 ft 326 kts 234°
2026-04-24 21:12 54.16265 11.02523 13472 ft 323 kts 234°
2026-04-24 21:12 54.14317 10.98770 12950 ft 316 kts 234°
2026-04-24 21:12 54.12871 10.95979 12505 ft 312 kts 234°
2026-04-24 21:13 54.11437 10.93215 12080 ft 309 kts 234°
2026-04-24 21:13 54.10020 10.90491 11655 ft 306 kts 234°
2026-04-24 21:13 54.08615 10.87797 11238 ft 301 kts 234°
2026-04-24 21:13 54.07231 10.85151 10820 ft 297 kts 234°
2026-04-24 21:14 54.05865 10.82541 10413 ft 293 kts 234°
2026-04-24 21:14 54.04516 10.79963 10013 ft 290 kts 234°
2026-04-24 21:14 54.03172 10.77395 9573 ft 290 kts 234°
2026-04-24 21:14 54.01835 10.74840 9179 ft 288 kts 234°
2026-04-24 21:15 54.00504 10.72297 8778 ft 286 kts 234°
2026-04-24 21:15 53.99185 10.69780 8396 ft 285 kts 234°
2026-04-24 21:15 53.97882 10.67306 8023 ft 283 kts 234°
2026-04-24 21:15 53.96574 10.64828 7650 ft 281 kts 234°
2026-04-24 21:16 53.95273 10.62363 7272 ft 279 kts 233°
2026-04-24 21:16 53.93979 10.59913 6913 ft 278 kts 233°
2026-04-24 21:16 53.93112 10.58268 6676 ft 276 kts 233°
2026-04-24 21:16 53.91835 10.55845 6300 ft 275 kts 233°
2026-04-24 21:17 53.90566 10.53435 5915 ft 273 kts 233°
2026-04-24 21:17 53.89304 10.51045 5521 ft 271 kts 233°
2026-04-24 21:17 53.88048 10.48670 5148 ft 270 kts 233°
2026-04-24 21:17 53.86803 10.46320 4772 ft 267 kts 233°
2026-04-24 21:18 53.85568 10.43999 4441 ft 261 kts 233°
2026-04-24 21:18 53.84359 10.41760 4187 ft 254 kts 230°
2026-04-24 21:18 53.83109 10.39699 3948 ft 246 kts 232°
2026-04-24 21:18 53.82019 10.37612 3873 ft 234 kts 236°
2026-04-24 21:19 53.80991 10.35493 3739 ft 232 kts 237°
2026-04-24 21:19 53.79967 10.33376 3599 ft 232 kts 237°
2026-04-24 21:19 53.78936 10.31256 3478 ft 233 kts 236°
2026-04-24 21:19 53.77922 10.29181 3359 ft 223 kts 236°
2026-04-24 21:20 53.76024 10.25293 3114 ft 205 kts 237°
2026-04-24 21:20 53.75135 10.23473 3023 ft 196 kts 238°
2026-04-24 21:20 53.74291 10.21749 2996 ft 185 kts 238°
2026-04-24 21:21 53.73493 10.20113 2996 ft 182 kts 238°
2026-04-24 21:21 53.72691 10.18472 2943 ft 181 kts 238°
2026-04-24 21:21 53.71884 10.16823 2675 ft 181 kts 238°
2026-04-24 21:21 53.71087 10.15196 2432 ft 178 kts 238°
2026-04-24 21:22 53.70300 10.13593 2194 ft 176 kts 237°
2026-04-24 21:22 53.69534 10.12034 1958 ft 169 kts 238°
2026-04-24 21:22 53.68791 10.10519 1730 ft 165 kts 238°
2026-04-24 21:22 53.68104 10.09129 1506 ft 144 kts 238°
2026-04-24 21:23 53.67492 10.07892 1306 ft 131 kts 238°
2026-04-24 21:23 53.66923 10.06731 1071 ft 128 kts 239°
2026-04-24 21:23 53.66365 10.05582 928 ft 126 kts 238°
2026-04-24 21:23 53.65812 10.04447 783 ft 124 kts 237°
2026-04-24 21:24 53.65275 10.03355 621 ft 122 kts 238°
2026-04-24 21:24 53.64737 10.02256 440 ft 123 kts 234°
2026-04-24 21:24 53.64190 10.01155 270 ft 122 kts 236°
2026-04-24 21:24 53.63646 10.00064 111 ft 121 kts 235°
2026-04-24 21:25 53.63148 9.99048 47 ft 98 kts 231°
2026-04-24 21:25 53.62825 9.98391 44 ft 46 kts 230°
2026-04-24 21:25 53.62638 9.98012 42 ft 40 kts 230°
2026-04-24 21:25 53.62506 9.97789 41 ft 17 kts 193°
2026-04-24 21:26 53.62426 9.97862 45 ft 12 kts 120°
2026-04-24 21:26 53.62432 9.97948 47 ft 6 kts 78°
2026-04-24 21:26 53.62439 9.97999 46 ft 5 kts 76°
2026-04-24 21:26 53.62461 9.98081 47 ft 10 kts 58°
2026-04-24 21:27 53.62508 9.98184 47 ft 12 kts 50°
2026-04-24 21:27 53.62563 9.98295 47 ft 13 kts 50°
2026-04-24 21:27 53.62630 9.98431 47 ft 16 kts 50°
2026-04-24 21:27 53.62703 9.98579 47 ft 17 kts 50°
2026-04-24 21:28 53.62781 9.98736 47 ft 18 kts 50°
2026-04-24 21:28 53.62862 9.98901 47 ft 19 kts 50°
2026-04-24 21:28 53.62948 9.99074 47 ft 20 kts 50°
2026-04-24 21:28 53.63033 9.99248 47 ft 14 kts 51°
2026-04-24 21:29 53.63076 9.99344 47 ft 4 kts 55°
2026-04-24 21:29 53.63096 9.99392 47 ft 7 kts 56°
2026-04-24 21:29 53.63130 9.99475 46 ft 10 kts 56°
2026-04-24 21:29 53.63173 9.99575 46 ft 11 kts 50°
2026-04-24 21:30 53.63223 9.99670 48 ft 12 kts 48°
2026-04-24 21:30 53.63284 9.99774 48 ft 13 kts 47°
2026-04-24 21:30 53.63344 9.99894 48 ft 14 kts 50°
2026-04-24 21:30 53.63409 10.00023 48 ft 14 kts 49°
2026-04-24 21:31 53.63426 10.00129 46 ft 4 kts 113°
2026-04-24 21:31 53.63416 10.00154 48 ft 3 kts 124°
2026-04-24 21:31 53.63383 10.00195 48 ft 8 kts 165°
2026-04-24 21:31 53.63326 10.00199 48 ft 9 kts 178°
2026-04-24 21:32 53.63286 10.00246 48 ft 8 kts 85°
2026-04-24 21:32 53.63292 10.00338 48 ft 3 kts 88°
2026-04-24 21:32 53.63292 10.00358 48 ft 0 kts 88°